Strona główna
METAR-TAF:

METAR-TAF

Lotnisko :

Madison, Dakota Południowa, Stany Zjednoczone

Szerokość geograficzna: 44-00-59N, Długość geograficzna: 097-05-08W, wysokość: 524 m

Aktualna obserwacja pogody

Raport powstał 36 minut temu, godzina 04:15 UTC
Wiatr 7 kt od zachód
Temperatura -1°C
Wilgotność 100%
Ciśnienie 1017 hPa
Widzialność: 16.1 km
Zachmurzenie całkowite na wysokości 400 ft

METAR: KMDS 280415Z AUTO 27007KT 10SM OVC004 M01/M01 A3003 RMK AO2

czas: 21:51 (04:51 UTC)


TAF: brakujący

Obserwacja i prognoza pogody dla ponad 4000 lotnisk (raport METAR i TAF).

Dostępne stacje oznaczono żółtymi i czerwonymi punktami na mapie.

Najedź kursorem aby zobaczyć nazwę stacji.

Kliknij aby zobaczyć obserwacje i prognozy pogody.

Aby zmienić mapę: kliknij na zielony przycisk z czarnym krzyżykiem, aby powiększyć; na zielony przycisk z myślnikiem, aby pomniejszyć; na zielone strzałki, aby przejść do map sąsiednich.


METAR-TAF: